TimeCDT,TemperatureF,Dew PointF,Humidity,Sea Level PressureIn,VisibilityMPH,Wind Direction,Wind SpeedMPH,Gust SpeedMPH,PrecipitationIn,Events,Conditions,WindDirDegrees,DateUTC
12:56 AM,26.1,22.1,85,30.21,10.0,Calm,Calm,-,N/A,,Clear,0,2013-03-20 05:56:00
1:56 AM,24.1,21.0,88,30.20,10.0,Calm,Calm,-,N/A,,Clear,0,2013-03-20 06:56:00
2:56 AM,22.1,20.1,92,30.20,10.0,Calm,Calm,-,N/A,,Clear,0,2013-03-20 07:56:00
3:56 AM,21.0,19.0,92,30.19,10.0,Calm,Calm,-,N/A,,Clear,0,2013-03-20 08:56:00
4:56 AM,21.0,19.0,92,30.18,10.0,Calm,Calm,-,N/A,,Clear,0,2013-03-20 09:56:00
5:56 AM,20.1,18.1,92,30.19,10.0,Calm,Calm,-,N/A,,Clear,0,2013-03-20 10:56:00
6:56 AM,22.1,20.1,92,30.19,10.0,Calm,Calm,-,N/A,,Clear,0,2013-03-20 11:56:00
7:56 AM,29.1,23.0,78,30.19,10.0,Calm,Calm,-,N/A,,Clear,0,2013-03-20 12:56:00
8:56 AM,37.9,25.2,60,30.18,10.0,NNE,3.5,-,N/A,,Clear,20,2013-03-20 13:56:00
9:56 AM,45.0,17.1,33,30.16,10.0,East,11.5,-,N/A,,Clear,80,2013-03-20 14:56:00
10:56 AM,45.9,17.1,32,30.14,10.0,East,12.7,23.0,N/A,,Clear,80,2013-03-20 15:56:00
11:56 AM,46.9,19.0,33,30.13,10.0,East,16.1,-,N/A,,Clear,80,2013-03-20 16:56:00
12:56 PM,48.9,21.0,33,30.10,10.0,East,12.7,23.0,N/A,,Clear,90,2013-03-20 17:56:00
1:56 PM,50.0,21.0,32,30.05,10.0,ENE,11.5,-,N/A,,Clear,60,2013-03-20 18:56:00
2:21 PM,48.2,21.2,34,29.99,10.0,ESE,15.0,21.9,N/A,,Scattered Clouds,110,2013-03-20 19:21:00
2:56 PM,48.9,22.1,35,30.01,10.0,East,13.8,19.6,N/A,,Partly Cloudy,100,2013-03-20 19:56:00
3:56 PM,46.9,22.1,38,30.00,10.0,ESE,20.7,29.9,N/A,,Partly Cloudy,110,2013-03-20 20:56:00
4:56 PM,39.9,26.1,58,30.04,10.0,SE,20.7,33.4,N/A,,Partly Cloudy,130,2013-03-20 21:56:00
5:56 PM,37.9,24.1,57,30.06,10.0,ESE,18.4,25.3,0.00,,Scattered Clouds,120,2013-03-20 22:56:00
6:56 PM,34.9,20.1,55,30.07,10.0,SE,16.1,19.6,N/A,,Partly Cloudy,130,2013-03-20 23:56:00
7:56 PM,32.0,16.2,52,30.08,10.0,SE,13.8,18.4,N/A,,Clear,130,2013-03-21 00:56:00
8:56 PM,30.0,15.1,54,30.09,10.0,SE,8.1,-,N/A,,Clear,140,2013-03-21 01:56:00
9:56 PM,28.0,15.1,58,30.09,10.0,SE,13.8,-,N/A,,Clear,140,2013-03-21 02:56:00
10:56 PM,26.1,14.0,60,30.09,10.0,SE,10.4,-,N/A,,Clear,140,2013-03-21 03:56:00
11:56 PM,25.2,13.1,60,30.09,10.0,SE,8.1,-,N/A,,Clear,130,2013-03-21 04:56:00